Regional Weather Roundup
Issued by NWS Portland, ME

Home | Current Version | Previous Version | Text Only | Print | Product List | Glossary On
Versions: 1 2 3 4 5 6 7 8 9 10 11 12 13 14 15 16 17 18 19 20 21 22 23 24 25 26 27 28 29 30 31 32 33 34 35 36 37 38 39 40 41 42 43 44 45 46 47 48 49 50
000
ASUS41 KGYX 030510
RWRGYX
WEATHER ROUNDUP FOR MAINE AND NEW HAMPSHIRE
NATIONAL WEATHER SERVICE GRAY ME
100 AM EDT WED JUN 03 2015

MEZ002-005-006-010-012-015-018-020-021-024-026-027-029-030600-
MAINE

CITY           SKY/WX    TMP DP  RH WIND       PRES   REMARKS
PORTLAND       CLOUDY    47  46  97 NW3       30.19S
SANFORD        CLOUDY   N/A N/A N/A MISG        N/A
BAR HARBOR     CLOUDY    45  45 100 CALM      30.16S
WISCASSET      PTCLDY    41  40  96 CALM      30.19S
ROCKLAND       CLOUDY    46  43  87 CALM      30.16F
FRYEBURG       CLOUDY    47  44  90 CALM      30.18F
LEWISTONAUBURN CLOUDY    45  41  87 CALM      30.18S
AUGUSTA        CLOUDY    43  42  97 NW3       30.19R
WATERVILLE     CLOUDY    45  39  81 N5        30.16S
BANGOR         CLOUDY    44  43  96 N7        30.17F
GREENVILLE       N/A     40  38  93 CALM      30.14S
MILLINOCKET    CLOUDY    43  41  93 N6        30.19S
HOULTON        CLOUDY    41  39  93 N6        30.16R FOG
PRESQUE ISLE   CLOUDY    41  36  81 NE8       30.18F
FRENCHVILLE    CLOUDY    38  36  92 NE7G16    30.18F FOG
CARIBOU        CLOUDY    41  38  89 NE5       30.18F FOG
$$

NHZ002-005-008-009-011-012-014-030600-
NEW HAMPSHIRE

CITY           SKY/WX    TMP DP  RH WIND       PRES   REMARKS
PORTSMOUTH     CLOUDY    47  46  94 SW2       30.18F
ROCHESTER      CLOUDY    47  45  93 CALM      30.18S
NASHUA         CLOUDY    48  47  97 CALM      30.20F
MANCHESTER     CLOUDY    49  46  90 CALM      30.18S
CONCORD        CLOUDY    49  47  93 CALM      30.18F
LACONIA        CLOUDY    48  45  87 SW6       30.16F
BERLIN         CLOUDY    48  44  86 N3        30.16S FOG
WHITEFIELD     CLOUDY    49  45  86 NW6       30.17S
JAFFREY        CLOUDY    46  45  96 CALM      30.18S
KEENE          CLOUDY    48  46  93 CALM      30.19S
LEBANON        PTCLDY    50  46  86 NW6       30.19R
MT WASHINGTON  FRZ DRZL  30  30 100 NW39        N/A  VSB 1/16WCI  13
$$

VTZ005-007-008-030600-
VERMONT

CITY           SKY/WX    TMP DP  RH WIND       PRES   REMARKS
ST JOHNSBURY     N/A     50  43  77 MISG      30.18R
MONTPELIER     CLEAR     42  39  89 NW5       30.24S
BURLINGTON     CLEAR     46  42  86 CALM      30.24R
$$

MAZ007-012-024-CTZ003-RIZ002-NYZ038-NYZ072-030600-
SOUTHERN NEW ENGLAND AND NY

CITY           SKY/WX    TMP DP  RH WIND       PRES   REMARKS
BOSTON         CLOUDY    47  45  93 NW3       30.21S
WORCESTER      CLOUDY    46  43  89 N3        30.18S
NANTUCKET      CLOUDY    51  45  79 N18       30.15S
PROVIDENCE     CLOUDY    48  44  86 NE8       30.19F
HARTFORD       CLOUDY    51  47  86 CALM      30.18F
ALBANY         CLOUDY    54  45  71 N6        30.20S
NEW YORK CITY  CLOUDY    54  49  83 E7        30.18S
$$

ANZ081-ANZ082-ANZ150-NHZ014-MEZ023>029-030600-
COASTAL MARINE OBSERVATIONS

STATION/POSITION TIME  TEMP    WIND        PRES    WAVE
                       AIR SEA DIR/SP/G            HT/PER
                 (UTC) (F)     (DEG/KT/KT) (MB)    (FT/S)
MOUNT DESERT ROC 0500   44     330/  8/  9   N/A
MATINICUS ROCK   0500   45     350/ 11/ 12   N/A
ISLE OF SHOALS   0500   46     290/  3/  4   N/A
JEFFREYS LEDGE   0433      49                N/A     6/ 8
CASHES LEDGE BUO 0450   47 49                N/A     5/ 6
GEORGES BANK BUO 0450   51 54  330/ 12/ 14   N/A     4/ 8
$$

.............KEY..............
   WCI - WIND CHILL
   TC  - TEMPERATURE IN CELSIUS
   VSB - VISIBILITY IN MILES
   HX  - HEAT INDEX
   FAIR- INDICATES FEW OR NO CLOUDS BELOW 12,000 FT, WITH NO
         SIGNIFICANT WEATHER AND/OR OBSTRUCTIONS TO VISIBILITY.




USA.gov is the U.S. government's official web portal to all federal, state and local government web resources and services.